Weather WX

World > North America > United States > Missouri

Bible Grove, Missouri Regional Weather

Lat: 40.35N, Lon: 92.3W
Wx Zone: MOZ018
Warning FLW WEATHER ALERT - (More Info. Click Here) Warning
Feedback

Bible Grove, MO Regional Weather

Expires:201906242200;;019719
ASUS43 KLSX 242107
RWRMO 

WEATHER SUMMARY FOR MISSOURI
NATIONAL WEATHER SERVICE SPRINGFIELD MO
400 PM CDT MON JUN 24 2019

NOTE: "FAIR" INDICATES FEW OR NO CLOUDS BELOW 12,000 FEET WITH NO
       SIGNIFICANT WEATHER AND/OR OBSTRUCTIONS TO VISIBILITY.
       CURRENT SKY AND/OR WEATHER CONDITIONS ARE NOT AVAILABLE FOR
       CHILLICOTHE AND FARMINGTON.


MOZ001>031-035>038-043-044-053-054-242200-
...NORTHERN AND WESTERN MISSOURI...
  
CITY           SKY/WX    TMP DP  RH WIND       PRES   REMARKS
KANSAS CTY INT MOSUNNY   78  59  51 SW14G21   29.84F                  
KANSAS C DTWN  SUNNY     80  54  40 SW13G22   29.83F                  
LEE'S SUMMIT   MOSUNNY   78  55  44 W10       29.86S                  
ST JOSEPH      MOSUNNY   79  55  43 W13G22    29.82S                  
CHILLICOTHE      N/A     79  58  48 W10G20    29.81S                  
KIRKSVILLE     MOSUNNY   76  58  53 W16G26    29.79S                  
     
$$

SKY/WX - Weather  TMP - Temperature  DP - Dew Point  RH - Relative Humidity
WIND - Wind Direction/Speed PRES - Barometric Pressure VSB - Visibility
WCI - Wind Chill Index E13G22 Wind - East Wind 13 mph/Gusts of 22 mph